Content
SEND FEEDBACK

Daily
Averages
Monthly
Summary
United States of America

CARRBORO, NORTH CAROLINA


Home > North America > United States > North Carolina
Elevation: 447 feet     Latitude: 35 55N     Longitude: 079 06W

WEATHER
 
SELECT A DAY
Number of Records: 159,423;   Date Range: 7/14/99 - 7/20/14
 
SHARE

PRINT THIS DATA

[ ← Previous Day ]
WEATHER ALMANAC - FEBRUARY 17, 2014
[ Next Day → ]
[ °C ]   °F
Weather ElementAverageHighLow
Temperature37.8 °F44.1 °F (1:56 pm)32 °F (5:56 am)
Dewpoint21.3 °F25 °F (11:56 pm)19 °F (3:56 pm)
Humidity52.6 %66 % (7:56 am)37 % (3:56 pm)
Barometer30.29 in30.39 in (8:56 am)30.19 in (11:56 pm)
Wind Speed4.9 mph9.2 mph (8:56 am)
Weather ElementAverage
Visibility10 mi
Wind DirectionENE (84.3 °)

Weather ElementTotal
Precipitation---
Heating Degree Days27 (Base 65)
Averaged from 23 records on February 17, 2014
WEATHER CONDITIONS BREAKOUT
WIND DIRECTION BREAKOUT
WEATHER BY HOUR - FEBRUARY 17, 2014
[ °C ]   °F
Local TimeTemperatureDewpointHumidityBarometerVisibilityWind DirectionWind SpeedGust SpeedPrecipitationEventsConditions
1:56 AM37.0 °F23.0 °F57 %30.22 in10.0 miNNW (330°)3.5 mphClear
2:56 AM35.1 °F21.9 °F59 %30.24 in10.0 miNW (320°)3.5 mphClear
3:56 AM34.0 °F21.9 °F61 %30.26 in10.0 miVariable3.5 mphClear
4:56 AM33.1 °F19.9 °F59 %30.28 in10.0 miNNW (330°)4.6 mphClear
5:56 AM32.0 °F19.9 °F61 %30.30 in10.0 miVariable3.5 mphClear
6:56 AM32.0 °F21.0 °F64 %30.34 in10.0 miNE (50°)8.1 mphClear
7:56 AM32.0 °F21.9 °F66 %30.37 in10.0 miENE (60°)8.1 mphClear
8:56 AM33.1 °F21.0 °F61 %30.39 in10.0 miNE (50°)9.2 mphClear
9:56 AM36.0 °F21.0 °F55 %30.38 in10.0 miENE (70°)9.2 mphClear
10:56 AM37.9 °F21.0 °F51 %30.38 in10.0 miEast (90°)8.1 mphClear
11:56 AM41.0 °F23.0 °F49 %30.37 in10.0 miENE (70°)9.2 mphClear
12:56 PM42.1 °F21.0 °F43 %30.34 in10.0 miVariable3.5 mphClear
1:56 PM44.1 °F21.9 °F42 %30.31 in10.0 miCalmClear
2:56 PM44.1 °F19.9 °F38 %30.28 in10.0 miSE (140°)4.6 mphClear
3:56 PM44.1 °F19.0 °F37 %30.28 in10.0 miVariable6.9 mphClear
4:56 PM44.1 °F19.9 °F38 %30.29 in10.0 miVariable5.8 mphClear
5:56 PM42.1 °F19.9 °F41 %30.28 in10.0 miVariable3.5 mphClear
6:56 PM39.9 °F19.9 °F45 %30.29 in10.0 miCalmClear
7:56 PM37.9 °F21.0 °F51 %30.29 in10.0 miCalmClear
8:56 PM37.0 °F21.9 °F54 %30.25 in10.0 miEast (100°)4.6 mphClear
9:56 PM36.0 °F21.9 °F57 %30.24 in10.0 miEast (100°)4.6 mphScattered Clouds
10:56 PM37.0 °F24.1 °F59 %30.21 in10.0 miESE (120°)4.6 mphOvercast
11:56 PM37.0 °F25.0 °F62 %30.19 in10.0 miESE (110°)4.6 mphOvercast
Hourly data recorded from KIGX, located miles away from Carrboro, North Carolina







STORIES FROM OUR PARTNERS